• In Lithuania
  • List of Countries
  • For 7 days
  • Water Temperature
  • Satellite Maps
  • Weather Map
  • Weather Widgets
  • user-avatar
    Login

    Hourly Weather Edmonton

    Today, 26 September, Wednesday

    Time Temperature Precipitation Wind Pressure Humidity
    00:00 +8°C° 0 mm 6 mps 703 mmHg 70%
    01:00 +8°C° 0 mm 6 mps 703 mmHg 69%
    02:00 +8°C° 0.1 mm 6 mps 703 mmHg 72%
    03:00 +8°C° 0.1 mm 5 mps 703 mmHg 75%
    04:00 +7°C° 0.1 mm 5 mps 702 mmHg 78%
    05:00 +7°C° 0.5 mm 5 mps 702 mmHg 82%
    06:00 +7°C° 0.5 mm 5 mps 703 mmHg 86%
    07:00 +7°C° 0.5 mm 5 mps 703 mmHg 89%
    08:00 +7°C° 0.6 mm 5 mps 703 mmHg 88%
    09:00 +8°C° 0.6 mm 5 mps 703 mmHg 87%
    10:00 +8°C° 0.6 mm 5 mps 703 mmHg 86%
    11:00 +9°C° 0.3 mm 5 mps 703 mmHg 81%
    12:00 +9°C° 0.3 mm 5 mps 704 mmHg 76%
    13:00 +10°C° 0.3 mm 5 mps 704 mmHg 71%
    14:00 +10°C° 0.2 mm 5 mps 704 mmHg 72%
    15:00 +10°C° 0.2 mm 4 mps 704 mmHg 73%
    16:00 +10°C° 0.2 mm 4 mps 705 mmHg 74%
    17:00 +8°C° 0.1 mm 4 mps 705 mmHg 76%
    18:00 +8°C° 0.1 mm 3 mps 706 mmHg 77%
    19:00 +8°C° 0.1 mm 3 mps 706 mmHg 79%
    20:00 +7°C° 0.1 mm 3 mps 707 mmHg 80%
    21:00 +5°C° 0.1 mm 3 mps 707 mmHg 81%
    22:00 +5°C° 0.1 mm 3 mps 708 mmHg 83%
    23:00 +4°C° 0.1 mm 3 mps 708 mmHg 84%

    Tomorrow, 27 September, Thursday

    Time Temperature Precipitation Wind Pressure Humidity
    00:00 +5°C° 0.1 mm 2 mps 708 mmHg 85%
    01:00 +5°C° 0.1 mm 2 mps 709 mmHg 87%
    02:00 +4°C° 0 mm 2 mps 709 mmHg 87%
    03:00 +3°C° 0 mm 2 mps 709 mmHg 88%
    04:00 +3°C° 0 mm 2 mps 710 mmHg 88%
    05:00 +3°C° 0 mm 2 mps 710 mmHg 86%
    06:00 +3°C° 0 mm 2 mps 710 mmHg 83%
    07:00 +3°C° 0 mm 2 mps 711 mmHg 80%
    08:00 +4°C° 0 mm 2 mps 711 mmHg 73%
    09:00 +5°C° 0 mm 2 mps 711 mmHg 66%
    10:00 +6°C° 0 mm 2 mps 711 mmHg 59%
    11:00 +7°C° 0 mm 2 mps 711 mmHg 57%
    12:00 +8°C° 0 mm 2 mps 711 mmHg 55%
    13:00 +9°C° 0 mm 2 mps 710 mmHg 52%
    14:00 +9°C° 0 mm 2 mps 710 mmHg 55%
    15:00 +9°C° 0 mm 2 mps 710 mmHg 57%
    16:00 +8°C° 0 mm 2 mps 710 mmHg 60%
    17:00 +7°C° 0 mm 2 mps 710 mmHg 65%
    18:00 +7°C° 0 mm 1 mps 710 mmHg 70%
    19:00 +5°C° 0 mm 1 mps 710 mmHg 75%
    20:00 +5°C° 0 mm 1 mps 710 mmHg 78%
    21:00 +3°C° 0 mm 2 mps 710 mmHg 81%
    22:00 +3°C° 0 mm 2 mps 710 mmHg 83%
    23:00 +3°C° 0 mm 2 mps 709 mmHg 85%

    Day after tomorrow, 28 September, Friday

    Time Temperature Precipitation Wind Pressure Humidity
    00:00 +2°C° 0 mm 2 mps 709 mmHg 87%
    01:00 +2°C° 0 mm 2 mps 709 mmHg 89%
    02:00 +2°C° 0 mm 2 mps 708 mmHg 90%
    03:00 +1°C° 0 mm 2 mps 708 mmHg 90%
    04:00 +1°C° 0 mm 2 mps 707 mmHg 90%
    05:00 +3°C° 0 mm 1 mps 707 mmHg 88%
    06:00 +3°C° 0 mm 1 mps 707 mmHg 85%
    07:00 +4°C° 0 mm 1 mps 707 mmHg 83%
    08:00 +6°C° 0 mm 1 mps 706 mmHg 76%
    09:00 +8°C° 0 mm 1 mps 706 mmHg 68%
    10:00 +10°C° 0 mm 1 mps 706 mmHg 61%
    11:00 +11°C° 0 mm 1 mps 705 mmHg 56%
    12:00 +11°C° 0 mm 1 mps 705 mmHg 52%
    13:00 +12°C° 0 mm 1 mps 704 mmHg 47%
    14:00 +12°C° 0 mm 1 mps 704 mmHg 50%
    15:00 +11°C° 0 mm 1 mps 704 mmHg 53%
    16:00 +11°C° 0 mm 1 mps 703 mmHg 56%
    17:00 +10°C° 0 mm 1 mps 704 mmHg 59%
    18:00 +9°C° 0 mm 1 mps 704 mmHg 61%
    19:00 +6°C° 0 mm 2 mps 704 mmHg 64%
    20:00 +6°C° 0.1 mm 2 mps 704 mmHg 67%
    21:00 +6°C° 0.1 mm 2 mps 704 mmHg 71%
    22:00 +4°C° 0.1 mm 3 mps 705 mmHg 75%
    23:00 +4°C° 0.1 mm 3 mps 705 mmHg 76%

    29 September, Saturday

    Time Temperature Precipitation Wind Pressure Humidity
    00:00 +3°C° 0.1 mm 3 mps 705 mmHg 77%
    01:00 +3°C° 0.1 mm 3 mps 705 mmHg 77%
    02:00 +2°C° 0.1 mm 3 mps 706 mmHg 75%
    03:00 +2°C° 0.1 mm 3 mps 706 mmHg 73%
    04:00 +1°C° 0.1 mm 3 mps 707 mmHg 71%
    05:00 +1°C° 0.1 mm 3 mps 707 mmHg 71%
    06:00 +1°C° 0.1 mm 3 mps 708 mmHg 70%
    07:00 -1°C° 0.1 mm 4 mps 708 mmHg 70%
    08:00 0°C° 0 mm 4 mps 709 mmHg 67%
    09:00 0°C° 0 mm 4 mps 709 mmHg 63%
    10:00 +1°C° 0 mm 4 mps 710 mmHg 60%
    11:00 +1°C° 0 mm 4 mps 710 mmHg 58%
    12:00 +3°C° 0 mm 4 mps 710 mmHg 56%
    13:00 +3°C° 0 mm 4 mps 710 mmHg 53%
    14:00 +3°C° 0 mm 4 mps 710 mmHg 53%
    15:00 +1°C° 0 mm 4 mps 710 mmHg 53%
    16:00 +1°C° 0 mm 4 mps 710 mmHg 53%
    17:00 +1°C° 0 mm 3 mps 710 mmHg 56%
    18:00 +1°C° 0 mm 2 mps 711 mmHg 60%
    19:00 -1°C° 0 mm 2 mps 711 mmHg 64%
    20:00 -2°C° 0 mm 2 mps 711 mmHg 65%
    21:00 0°C° 0 mm 1 mps 711 mmHg 67%
    22:00 -1°C° 0 mm 1 mps 711 mmHg 69%
    23:00 -1°C° 0 mm 1 mps 711 mmHg 70%

    30 September, Sunday

    Time Temperature Precipitation Wind Pressure Humidity
    00:00 -1°C° 0 mm 1 mps 711 mmHg 70%
    01:00 -3°C° 0 mm 2 mps 710 mmHg 71%
    02:00 -4°C° 0 mm 2 mps 710 mmHg 72%
    03:00 -4°C° 0 mm 2 mps 710 mmHg 72%
    04:00 -4°C° 0 mm 2 mps 709 mmHg 73%
    05:00 -4°C° 0 mm 3 mps 709 mmHg 70%
    06:00 -3°C° 0 mm 4 mps 708 mmHg 67%
    07:00 -3°C° 0 mm 4 mps 708 mmHg 65%
    08:00 -1°C° 0 mm 5 mps 707 mmHg 60%
    09:00 0°C° 0 mm 5 mps 707 mmHg 56%
    10:00 +1°C° 0 mm 6 mps 706 mmHg 51%
    11:00 +1°C° 0 mm 6 mps 705 mmHg 53%
    12:00 +1°C° 0 mm 6 mps 705 mmHg 55%
    13:00 +1°C° 0 mm 6 mps 704 mmHg 57%
    14:00 +1°C° 0 mm 6 mps 703 mmHg 60%
    15:00 +1°C° 0 mm 5 mps 703 mmHg 63%
    16:00 +1°C° 0 mm 5 mps 702 mmHg 66%
    17:00 0°C° 0.1 mm 4 mps 702 mmHg 70%
    18:00 0°C° 0.1 mm 4 mps 702 mmHg 74%
    19:00 0°C° 0.1 mm 3 mps 702 mmHg 78%
    20:00 0°C° 0.1 mm 3 mps 701 mmHg 81%
    21:00 +1°C° 0.1 mm 2 mps 701 mmHg 83%
    22:00 +1°C° 0.1 mm 2 mps 701 mmHg 86%
    23:00 +2°C° 0.1 mm 1 mps 701 mmHg 88%

    1 October, Monday

    Time Temperature Precipitation Wind Pressure Humidity
    00:00 +2°C° 0.1 mm 1 mps 701 mmHg 90%
    01:00 +2°C° 0.1 mm 1 mps 700 mmHg 92%
    02:00 +1°C° 0 mm 1 mps 700 mmHg 93%
    03:00 +1°C° 0 mm 1 mps 700 mmHg 93%
    04:00 +1°C° 0 mm 1 mps 700 mmHg 93%
    05:00 +1°C° 0 mm 1 mps 701 mmHg 92%
    06:00 +2°C° 0 mm 1 mps 701 mmHg 91%
    07:00 +2°C° 0 mm 1 mps 701 mmHg 90%
    08:00 +3°C° 0.1 mm 1 mps 701 mmHg 86%
    09:00 +4°C° 0.1 mm 1 mps 701 mmHg 82%
    10:00 +5°C° 0.1 mm 1 mps 701 mmHg 79%
    11:00 +5°C° 0 mm 1 mps 701 mmHg 76%
    12:00 +6°C° 0 mm 1 mps 701 mmHg 74%
    13:00 +6°C° 0 mm 1 mps 701 mmHg 71%
    14:00 +6°C° 0 mm 1 mps 700 mmHg 73%
    15:00 +6°C° 0 mm 1 mps 700 mmHg 76%
    16:00 +6°C° 0 mm 1 mps 700 mmHg 78%
    17:00 +4°C° 0 mm 2 mps 700 mmHg 80%
    18:00 +4°C° 0 mm 2 mps 700 mmHg 83%
    19:00 +3°C° 0 mm 2 mps 700 mmHg 86%
    20:00 +2°C° 0.2 mm 3 mps 699 mmHg 88%
    21:00 +2°C° 0.2 mm 3 mps 699 mmHg 89%
    22:00 +2°C° 0.2 mm 3 mps 699 mmHg 91%
    23:00 0°C° 0.4 mm 4 mps 698 mmHg 92%
    Show more